Location: ??????????
(54.7560°N, 39.1389°E)
Time: 04:48:48
(UTC+00:00)

COSMOS 2428 - Pass Details

Date: 19 May 2025
Orbit: 845 x 853 km, 70.9° (Epoch: 19 June)

Event Time Altitude Azimuth Distance (km) Brightness Sun altitude
Rises 21:12:22 0° 325° (NW) 3,434 6.9 -15.3°
Reaches altitude 10° 21:14:56 10° 332° (NNW) 2,496 6.2 -15.3°
Maximum altitude 21:20:27 47° 46° (NE) 1,129 3.7 -15.3°
Drops below altitude 10° 21:25:57 10° 119° (ESE) 2,485 4.9 -15.3°
Enters shadow 21:27:58 - 125° (SE) 3,219 5.4 -15.3°
